User: anonymous   Login
Location: Unspecified
(0.0000°N, 0.0000°E)
Time: 03:35:20
(UTC+00:00)
Language:

IDEFIX/ARIANE 42P - Orbit

View from above orbital plane
View from above orbital plane
View from above satellite
View from above satellite

Ground track
Ground track

The orbit data is extracted from the following two-line orbital elements,

1 27422U 02021B   24170.82977846  .00000347  00000-0  15086-3 0  9994
2 27422  98.5276 108.4814 0010866 236.6324 123.3819 14.30139882154106
Epoch (UTC): 18 June 2024 19:54:52
Eccentricity: 0.0010866
inclination: 98.5276°
perigee height: 783 km
apogee height: 799 km
right ascension of ascending node: 108.4814°
argument of perigee: 236.6324°
revolutions per day: 14.30139882
mean anomaly at epoch: 123.3819°
orbit number at epoch: 15410

The dashed part of the orbit path shows where the satellite is in the earth's shadow,  

DLR